Regional Weather Roundup
Issued by NWS

Home | Current Version | Previous Version | Graphics & Text | Print | Product List | Glossary On
Versions: 1 2 3 4 5 6 7 8 9 10 11 12 13 14 15 16 17 18 19 20 21 22 23 24 25 26 27
000
ASUS45 KBOU 201906
RWRCO

WEATHER ROUNDUP FOR COLORADO
NATIONAL WEATHER SERVICE DENVER/BOULDER CO
100 PM MDT SUN APR 20 2014

NOTE: "FAIR" INDICATES FEW OR NO CLOUDS BELOW 12000 FEET WITH NO
SIGNIFICANT WEATHER AND/OR OBSTRUCTIONS TO VISIBILITY.

COZ001>005-013-030-031-202000-
...NORTHWEST COLORADO...

CITY           SKY/WX    TMP DP  RH WIND       PRES   REMARKS
CRAIG          PTSUNNY   63  34  33 CALM      30.15F
HAYDEN         PTSUNNY   61  34  36 CALM      30.19F
MEEKER         PTSUNNY   61  34  36 E7        30.16F
MOUNT WERNER   PTSUNNY   46  21  36 NW12      30.34S
STEAMBOAT SPGS PTSUNNY   61  28  28 SW9       30.16F
WALDEN         CLOUDY    54  28  37 SW5       30.21S
$$

COZ006>008-011-202000-
...WEST CENTRAL VALLEYS...

CITY           SKY/WX    TMP DP  RH WIND       PRES   REMARKS
GRAND JUNCTION MOSUNNY   66  39  37 NW7       30.12F
MONTROSE       MOSUNNY   65  37  35 VRB3      30.16F
EAGLE          PTSUNNY   63  34  34 CALM      30.17F
RIFLE          PTSUNNY   67  36  31 N3        30.12F
DELTA          MOSUNNY   69  40  35 W6        30.13F
NUCLA            N/A     66  36  32 N12G20    30.20S
$$

COZ017>023-064>068-202000-
...SOUTHWEST COLORADO...

CITY           SKY/WX    TMP DP  RH WIND       PRES   REMARKS
DURANGO        MOSUNNY   66  29  24 E8        30.13F
CORTEZ         MOSUNNY   69  32  25 NW15G21   30.13F
PAGOSA SPRINGS CLOUDY    60  23  24 CALM      30.17S
TELLURIDE      PTSUNNY   54  28  37 W5        30.27F
WOLF CREEK PAS PTSUNNY   37  21  52 N9G21     30.35F THUNDER
$$

COZ009-010-012-014-032>034-037-058>063-202000-
...CENTRAL COLORADO...

CITY           SKY/WX    TMP DP  RH WIND       PRES   REMARKS
ASPEN          PTSUNNY   53  30  41 SW6       30.20S
BUENA VISTA    PTSUNNY   57  31  36 SE6       30.19S
COPPER MTN     CLOUDY    41  30  65 W14G21    30.37F
BERTHOUD PASS  PTSUNNY   28  19  69 NW15      30.39F WCI  17
COTTONWOOD PAS LGT RAIN  50  28  43 CALM      30.27F
GUNNISON       CLOUDY    57  30  35 S5        30.20F
KREMMLING      MOSUNNY   59  32  36 W5        30.20F
LEADVILLE      CLOUDY    44  24  45 NE9G21    30.27F
MONARCH PASS   FLURRIES  36  30  80 CALM      30.46S
SALIDA         PTSUNNY   61  29  29 N20G28    30.23F
SUNLIGHT       MOSUNNY   45  28  53 W3        30.36F
WILKERSON PASS MIX PCPN  37  32  81 CALM      30.35S
$$

COZ069>075-202000-
...SAN LUIS VALLEY/SANGRE DE CRISTO MOUNTAINS...

CITY           SKY/WX    TMP DP  RH WIND       PRES   REMARKS
ALAMOSA        PTSUNNY   59  34  39 NW9       30.15F
LA VETA PASS   CLOUDY    39  34  81 CALM      30.27S
SAGUACHE       CLOUDY    59  28  31 N13G18    30.17S
$$

COZ035-036-038>040-202000-
...NORTHERN COLORADO FRONT RANGE...

CITY           SKY/WX    TMP DP  RH WIND       PRES   REMARKS
DENVER INTL AP MOSUNNY   69  35  28 VRB3      30.06F
DMNS CITY PARK   N/A     68  34  28 N2G12     30.06F
AURORA         MOSUNNY   68  36  30 N14       30.08F
FRONT RANGE AP NOT AVBL
ERIE MUNI ARPT MOSUNNY   67  38  34 CALM      30.06F
BOULDER MUN AP MOSUNNY   68  36  30 SE7       30.05F
CENTENNIAL     MOSUNNY   66  33  29 NE8       30.09F
BROOMFIELD     PTSUNNY   66  37  34 W8        30.09F
FORT COLLINS   MOSUNNY   70  43  37 SW8G16    30.05F
LONGMONT       PTSUNNY   71  38  30 SW7       30.06F
$$

COZ041-046-047-076>085-087-088-202000-
...PIKES PEAK/PALMER DIVIDE AND SOUTHERN FOOTHILLS...

CITY           SKY/WX    TMP DP  RH WIND       PRES   REMARKS
COLO. SPRINGS  PTSUNNY   66  34  30 N12       30.09F
A. F. ACADEMY  PTSUNNY   63  33  33 N12G18    30.10F
ELLICOTT       NOT AVBL
FALCON         PTSUNNY   62  31  30 NE16G23   30.14S
FORT CARSON    PTSUNNY   64  36  35 NE13      30.07F
LIMON          CLOUDY    69  40  34 N17       30.05F
MONUMENT HILL  PTSUNNY   61  32  33 NE7G17    30.13S
TRINIDAD       LGT RAIN  55  46  71 W13       30.10S
$$

COZ042>045-048>051-090-091-202000-
...NORTHEAST COLORADO...

CITY           SKY/WX    TMP DP  RH WIND       PRES   REMARKS
GREELEY ARPT   MOSUNNY   72  37  28 N5        30.02F
AKRON          PTSUNNY   68  39  34 N12       30.03F
BURLINGTON     PTSUNNY   68  47  46 E10       30.00F
WRAY           CLOUDY    63  53  68 N5        30.00F
STERLING       PTSUNNY   73  43  33 NE5       29.99F
HOLYOKE        PTSUNNY   68  43  40 E3        30.00F
FORT MORGAN    PTSUNNY   71  37  28 E5        30.03F
$$

COZ086-089-092>099-202000-
...SOUTHEAST COLORADO...

CITY           SKY/WX    TMP DP  RH WIND       PRES   REMARKS
PUEBLO         CLOUDY    69  32  25 VRB3      30.02F
LA JUNTA       CLOUDY    69  44  40 N16       30.00F
LAMAR          PTSUNNY   66  47  50 N5        29.96F
SPRINGFIELD      N/A     68  44  42 NW9G20    29.98F
$$



USA.gov is the U.S. government's official web portal to all federal, state and local government web resources and services.